OBJECT U (43776 NORAD) Tracking and Keplerian Element Data

This shows tracking and keplerian element data for the satellite.

Feedback or suggestion? Click here.




ElementValue
Catalog43776
NameOBJECT U
Epoch Orbit670
Epoch Day17.73371894
Epoch Year2019
RAAN91.445
Inclination97.7643
Eccentricity0.0016146
Argument of Perigee110.6254
Mean Anonmoly249.67
Mean Motion14.94854076
Decay Rate2.22E-06
L11 43776U 18099U 19017.73371894 .00000222 00000-0 25670-4 0 9994
L22 43776 97.7643 91.4450 0016146 110.6254 249.6700 14.94854076 6704

Live tracking and technical data element details for OBJECT U (NORAD 43776). OBJECT U can be tracked NOW for your location showing map with azimuth and elevation plus other details from your city location.

Track the satellite on the map from your city or location and see movement details for azimuth, elevation, latitude, longitude, range, height, and movement on the map or in text.







IsCatalogInMostPopularTable: catalog: 43776, numindb: 21
Update: records affected: 1



GetName: 43776 OBJECT U

Hit Count: updated at: Wed, 23 Jan 2019 03:32:04 GMT